Flag for Switzerland Weather past 2 weeks in Affoltern am Albis, Zurich, Switzerland

Now
72 °F

Scattered clouds.


Feels Like: 77 °F
Forecast: 48 / 64 °F
Wind: 8 mph from Southwest

Location: Zurich Town / Ville.

Current Time: May 29, 2015 at 3:26:15 PM

Latest Report: May 29, 2015 at 2:00 PM


Visibility: N/A

Pressure: 29.83 "Hg

Humidity: 37%

Dew point: 44 °F

Location of Affoltern am AlbisLocation

Historic Weather in Affoltern am Albis — Graph

°F

Affoltern am Albis temperature yesterday

Maximum temperature yesterday: 70 °F (at 5:00 PM)
Minimum temperature yesterday: 43 °F (at 6:00 AM)
Average temperature yesterday: 56 °F

Past Weeks' High & Low Weather Summary

 TemperatureHumidityPressure
High74 °F (May 18, 5:00 PM)97% (May 15, 5:00 PM)30.34 "Hg (May 15, 5:00 PM)
Low41 °F (May 21, 1:00 AM)26% (May 28, 4:00 PM)29.71 "Hg (May 18, 7:00 PM)
Average54 °F75%30.07 "Hg
* Reported May 14 1:00 PM — May 29 1:00 PM, Affoltern am Albis, Weather by CustomWeather, © 2015

Note: Actual official high and low records may vary slightly from our data, if they occured in-between our weather recording intervals... More about our weather records

Advertising

Affoltern am Albis weather history for previous 24 hours

 ConditionsComfort  
Time TempWeatherWind HumidityBarometerVisibility
1:00 PM
Fri, May 29
71 °FMild.8 mph38%29.85 "HgN/A
12:00 PM65 °FMild.5 mph43%29.90 "HgN/A
11:00 AM65 °FMild.2 mph50%29.91 "HgN/A
10:00 AM60 °FCool.2 mph64%29.93 "HgN/A
9:00 AM58 °FCool.2 mph72%29.95 "HgN/A
8:00 AM55 °FCool.2 mph71%29.97 "HgN/A
7:00 AM53 °FCool.1 mph78%29.97 "HgN/A
6:00 AM52 °FCool.2 mph80%29.98 "HgN/A
5:00 AM53 °FCool.2 mph75%29.98 "HgN/A
4:00 AM53 °FCool.2 mph77%30.00 "HgN/A
3:00 AM52 °FCool.1 mph77%30.02 "HgN/A
2:00 AM54 °FCool.1 mph72%30.03 "HgN/A
1:00 AM54 °FCool.1 mph69%30.03 "HgN/A
10:00 PM
Thu, May 28
60 °FRefreshingly cool.3 mph50%30.01 "HgN/A
9:00 PM63 °FMild.3 mph48%29.98 "HgN/A
8:00 PM65 °FScattered clouds.5 mph46%29.96 "HgN/A
7:00 PM66 °FMild.7 mph44%29.96 "HgN/A
6:00 PM70 °FMild.5 mph35%29.95 "HgN/A
5:00 PM70 °FMild.8 mph27%29.96 "HgN/A
4:00 PM69 °FMild.9 mph26%29.98 "HgN/A
3:00 PM69 °FMild.7 mph37%30.00 "HgN/A
Weather by CustomWeather, © 2015

See weather overviewHow to use our weather pages